Time,TemperatureF,DewpointF,PressureIn,WindDirection,WindDirectionDegrees,WindSpeedMPH,WindSpeedGustMPH,Humidity,HourlyPrecipIn,Conditions,Clouds,dailyrainin,SoftwareType,DateUTC
2013-12-20 00:00:00,43.0,30.0,30.10,South,186,3.0,8.0,58,0.00,,,-99.99,,2013-12-20 05:00:00,
2013-12-20 00:43:00,43.0,30.0,30.10,South,186,3.0,8.0,58,0.00,,,-99.99,,2013-12-20 05:43:00,
2013-12-20 00:53:00,43.0,30.0,30.10,South,186,3.0,8.0,58,0.00,,,-99.99,,2013-12-20 05:53:00,
2013-12-20 01:00:00,36.0,31.0,30.09,SSW,192,0.0,4.0,80,0.00,,,-99.99,,2013-12-20 06:00:00,
2013-12-20 01:43:00,36.0,31.0,30.09,SSW,192,0.0,4.0,80,0.00,,,-99.99,,2013-12-20 06:43:00,
2013-12-20 01:52:00,36.0,31.0,30.09,SSW,192,0.0,4.0,80,0.00,,,-99.99,,2013-12-20 06:52:00,
2013-12-20 02:00:00,34.0,30.0,30.09,South,183,0.0,0.0,84,0.00,,,-99.99,,2013-12-20 07:00:00,
2013-12-20 02:52:00,34.0,30.0,30.09,South,183,0.0,0.0,84,0.00,,,-99.99,,2013-12-20 07:52:00,
2013-12-20 04:00:00,33.0,30.0,30.09,South,173,0.0,6.0,86,0.00,,,-99.99,,2013-12-20 09:00:00,
2013-12-20 04:53:00,33.0,30.0,30.09,South,173,0.0,6.0,86,0.00,,,-99.99,,2013-12-20 09:53:00,
2013-12-20 05:00:00,33.0,29.0,30.08,South,188,0.0,3.0,88,0.00,,,-99.99,,2013-12-20 10:00:00,
2013-12-20 05:53:00,33.0,29.0,30.08,South,188,0.0,3.0,88,0.00,,,-99.99,,2013-12-20 10:53:00,
2013-12-20 09:00:00,43.0,33.0,30.08,South,185,0.0,6.0,68,0.00,,,-99.99,,2013-12-20 14:00:00,
2013-12-20 09:42:00,43.0,33.0,30.08,South,185,0.0,6.0,68,0.00,,,-99.99,,2013-12-20 14:42:00,
2013-12-20 09:52:00,43.0,33.0,30.08,South,185,0.0,6.0,68,0.00,,,-99.99,,2013-12-20 14:52:00,
2013-12-20 10:00:00,49.0,32.0,30.09,SW,221,6.0,13.0,51,0.00,,,-99.99,,2013-12-20 15:00:00,
2013-12-20 10:44:00,49.0,32.0,30.09,SW,221,6.0,13.0,51,0.00,,,-99.99,,2013-12-20 15:44:00,
2013-12-20 10:54:00,49.0,32.0,30.09,SW,221,6.0,13.0,51,0.00,,,-99.99,,2013-12-20 15:54:00,
2013-12-20 11:00:00,51.0,31.0,30.06,SSW,207,13.0,16.0,46,0.00,,,-99.99,,2013-12-20 16:00:00,
2013-12-20 11:43:00,51.0,31.0,30.06,SSW,207,13.0,16.0,46,0.00,,,-99.99,,2013-12-20 16:43:00,
2013-12-20 11:53:00,51.0,31.0,30.06,SSW,207,13.0,16.0,46,0.00,,,-99.99,,2013-12-20 16:53:00,
2013-12-20 12:00:00,53.0,32.0,30.05,WSW,245,10.0,18.0,45,0.00,,,-99.99,,2013-12-20 17:00:00,
2013-12-20 12:42:00,53.0,32.0,30.05,WSW,245,10.0,18.0,45,0.00,,,-99.99,,2013-12-20 17:42:00,
2013-12-20 12:52:00,53.0,32.0,30.05,WSW,245,10.0,18.0,45,0.00,,,-99.99,,2013-12-20 17:52:00,
2013-12-20 13:00:00,53.0,33.0,30.01,SW,219,8.0,16.0,46,0.00,,,-99.99,,2013-12-20 18:00:00,
2013-12-20 13:42:00,53.0,33.0,30.01,SW,219,8.0,16.0,46,0.00,,,-99.99,,2013-12-20 18:42:00,
2013-12-20 13:52:00,53.0,33.0,30.01,SW,219,8.0,16.0,46,0.00,,,-99.99,,2013-12-20 18:52:00,
2013-12-20 14:00:00,54.0,34.0,30.00,WSW,239,9.0,14.0,47,0.00,,,-99.99,,2013-12-20 19:00:00,
2013-12-20 14:42:00,54.0,34.0,30.00,WSW,239,9.0,14.0,47,0.00,,,-99.99,,2013-12-20 19:42:00,
2013-12-20 14:52:00,54.0,34.0,30.00,WSW,239,9.0,14.0,47,0.00,,,-99.99,,2013-12-20 19:52:00,
2013-12-20 15:00:00,54.0,36.0,29.99,South,183,4.0,12.0,50,0.00,,,-99.99,,2013-12-20 20:00:00,
2013-12-20 15:42:00,54.0,36.0,29.99,South,183,4.0,12.0,50,0.00,,,-99.99,,2013-12-20 20:42:00,
2013-12-20 15:52:00,54.0,36.0,29.99,South,183,4.0,12.0,50,0.00,,,-99.99,,2013-12-20 20:52:00,
2013-12-20 16:00:00,53.0,37.0,29.99,SSW,196,4.0,12.0,55,0.00,,,-99.99,,2013-12-20 21:00:00,
2013-12-20 16:43:00,53.0,37.0,29.99,SSW,196,4.0,12.0,55,0.00,,,-99.99,,2013-12-20 21:43:00,
2013-12-20 16:53:00,53.0,37.0,29.99,SSW,196,4.0,12.0,55,0.00,,,-99.99,,2013-12-20 21:53:00,
2013-12-20 17:00:00,48.0,38.0,30.02,SSW,202,2.0,7.0,67,0.00,,,-99.99,,2013-12-20 22:00:00,
2013-12-20 17:43:00,48.0,38.0,30.02,SSW,202,2.0,7.0,67,0.00,,,-99.99,,2013-12-20 22:43:00,
2013-12-20 17:53:00,48.0,38.0,30.02,SSW,202,2.0,7.0,67,0.00,,,-99.99,,2013-12-20 22:53:00,
2013-12-20 18:00:00,50.0,41.0,30.01,SSW,197,5.0,8.0,72,0.00,,,-99.99,,2013-12-20 23:00:00,
2013-12-20 18:43:00,50.0,41.0,30.01,SSW,197,5.0,8.0,72,0.00,,,-99.99,,2013-12-20 23:43:00,
2013-12-20 18:53:00,50.0,41.0,30.01,SSW,197,5.0,8.0,72,0.00,,,-99.99,,2013-12-20 23:53:00,
2013-12-20 19:00:00,49.0,43.0,30.02,SSE,161,3.0,10.0,80,0.00,,,-99.99,,2013-12-21 00:00:00,
2013-12-20 19:42:00,49.0,43.0,30.02,SSE,161,3.0,10.0,80,0.00,,,-99.99,,2013-12-21 00:42:00,
2013-12-20 19:52:00,49.0,43.0,30.02,SSE,161,3.0,10.0,80,0.00,,,-99.99,,2013-12-21 00:52:00,
2013-12-20 20:00:00,49.0,45.0,30.02,SW,216,2.0,6.0,84,0.00,,,-99.99,,2013-12-21 01:00:00,
2013-12-20 20:42:00,49.0,45.0,30.02,SW,216,2.0,6.0,84,0.00,,,-99.99,,2013-12-21 01:42:00,
2013-12-20 20:52:00,49.0,45.0,30.02,SW,216,2.0,6.0,84,0.00,,,-99.99,,2013-12-21 01:52:00,
2013-12-20 21:00:00,46.0,43.0,30.01,SSE,166,0.0,6.0,88,0.00,,,-99.99,,2013-12-21 02:00:00,
2013-12-20 21:42:00,46.0,43.0,30.01,SSE,166,0.0,6.0,88,0.00,,,-99.99,,2013-12-21 02:42:00,
2013-12-20 21:52:00,46.0,43.0,30.01,SSE,166,0.0,6.0,88,0.00,,,-99.99,,2013-12-21 02:52:00,
2013-12-20 22:00:00,46.0,43.0,30.00,South,178,0.0,6.0,90,0.00,,,-99.99,,2013-12-21 03:00:00,
2013-12-20 22:43:00,46.0,43.0,30.00,South,178,0.0,6.0,90,0.00,,,-99.99,,2013-12-21 03:43:00,
2013-12-20 22:53:00,46.0,43.0,30.00,South,178,0.0,6.0,90,0.00,,,-99.99,,2013-12-21 03:53:00,
2013-12-20 23:00:00,55.0,49.0,30.00,WSW,240,9.0,20.0,81,0.00,,,-99.99,,2013-12-21 04:00:00,
2013-12-20 23:43:00,55.0,49.0,30.00,WSW,240,9.0,20.0,81,0.00,,,-99.99,,2013-12-21 04:43:00,
2013-12-20 23:53:00,55.0,49.0,30.00,WSW,240,9.0,20.0,81,0.00,,,-99.99,,2013-12-21 04:53:00,